TRA260 LICC-LMML

Flight info

Callsign TRA260
Flight time N/A
Altitude 15000
Route NELDA N982 GZO
Aircraft B738/M-SDE2E3FGHIRWXY/LB1

Departure

Time 2026-04-29 06:42
Airport Catania-Fontanarossa Airport (LICC)

Arrival

Time N/A
Airport Malta International Airport (LMML)
Time Latitude Longitude Altitude Speed Heading
2026-04-29 06:18 37.46917 15.06623 17 ft 0 kts 19°
2026-04-29 06:35 37.46916 15.06623 18 ft 0 kts 19°
2026-04-29 06:35 37.46908 15.06620 18 ft 2 kts 16°
2026-04-29 06:35 37.46893 15.06616 18 ft 2 kts
2026-04-29 06:36 37.46878 15.06614 18 ft 2 kts
2026-04-29 06:36 37.46863 15.06615 18 ft 2 kts 355°
2026-04-29 06:36 37.46849 15.06612 18 ft 2 kts 36°
2026-04-29 06:36 37.46840 15.06597 18 ft 2 kts 76°
2026-04-29 06:37 37.46839 15.06588 18 ft 0 kts 90°
2026-04-29 06:38 37.46839 15.06591 18 ft 2 kts 90°
2026-04-29 06:38 37.46841 15.06657 17 ft 12 kts 86°
2026-04-29 06:39 37.46855 15.06810 16 ft 22 kts 83°
2026-04-29 06:39 37.46877 15.07048 15 ft 31 kts 84°
2026-04-29 06:39 37.46899 15.07328 14 ft 31 kts 85°
2026-04-29 06:39 37.46921 15.07602 14 ft 30 kts 84°
2026-04-29 06:40 37.46943 15.07860 15 ft 28 kts 84°
2026-04-29 06:40 37.46952 15.08039 15 ft 14 kts 106°
2026-04-29 06:40 37.46868 15.08090 15 ft 13 kts 182°
2026-04-29 06:40 37.46797 15.08028 15 ft 12 kts 249°
2026-04-29 06:41 37.46787 15.07922 15 ft 12 kts 264°
2026-04-29 06:41 37.46761 15.07612 14 ft 73 kts 264°
2026-04-29 06:41 37.46681 15.06652 18 ft 144 kts 264°
2026-04-29 06:41 37.46570 15.05264 517 ft 164 kts 265°
2026-04-29 06:42 37.46498 15.03902 1456 ft 158 kts 266°
2026-04-29 06:42 37.46415 15.02451 1961 ft 180 kts 263°
2026-04-29 06:42 37.46261 15.01013 2577 ft 191 kts 262°
2026-04-29 06:42 37.46084 14.99276 3219 ft 208 kts 262°
2026-04-29 06:43 37.45916 14.97413 3882 ft 225 kts 263°
2026-04-29 06:43 37.45745 14.95398 4620 ft 240 kts 264°
2026-04-29 06:43 37.45568 14.93306 5511 ft 246 kts 264°
2026-04-29 06:43 37.45387 14.91170 6529 ft 247 kts 265°
2026-04-29 06:44 37.45205 14.89044 7443 ft 249 kts 265°
2026-04-29 06:44 37.45021 14.86903 8321 ft 251 kts 265°
2026-04-29 06:44 37.44835 14.84737 9159 ft 253 kts 265°
2026-04-29 06:44 37.44647 14.82550 9959 ft 256 kts 265°
2026-04-29 06:45 37.44455 14.80336 10765 ft 258 kts 265°
2026-04-29 06:45 37.44181 14.78100 11532 ft 262 kts 257°
2026-04-29 06:45 37.43409 14.75995 12275 ft 269 kts 234°
2026-04-29 06:45 37.41999 14.74444 12978 ft 277 kts 213°
2026-04-29 06:46 37.40283 14.73326 13595 ft 281 kts 209°
2026-04-29 06:46 37.38530 14.72238 14353 ft 284 kts 210°
2026-04-29 06:46 37.36743 14.71109 14918 ft 289 kts 210°
2026-04-29 06:46 37.34945 14.69962 15037 ft 294 kts 210°
2026-04-29 06:47 37.33054 14.68753 15028 ft 303 kts 210°
2026-04-29 06:47 37.31209 14.67583 15027 ft 295 kts 210°
2026-04-29 06:47 37.29384 14.66429 15017 ft 292 kts 210°
2026-04-29 06:47 37.27575 14.65282 15043 ft 294 kts 210°
2026-04-29 06:48 37.25724 14.64107 15057 ft 294 kts 210°
2026-04-29 06:48 37.24283 14.63192 15074 ft 295 kts 210°
2026-04-29 06:48 37.22634 14.62147 15035 ft 293 kts 210°
2026-04-29 06:48 37.20801 14.60988 15070 ft 301 kts 210°
2026-04-29 06:49 37.18881 14.59767 15073 ft 323 kts 210°
2026-04-29 06:49 37.16851 14.58481 15067 ft 329 kts 210°
2026-04-29 06:49 37.14781 14.57177 15062 ft 329 kts 210°
2026-04-29 06:49 37.12736 14.55890 15064 ft 329 kts 210°
2026-04-29 06:50 37.10689 14.54600 15067 ft 329 kts 210°
2026-04-29 06:50 37.08641 14.53309 15062 ft 328 kts 210°